Wetbulb
68.92 69.31 69.54 69.85 69.09 64.58 59.36 56.46 56.76 56.28 55.76 55.34 56.58 57.62 56.84 57.59 58.00 57.40 56.54 56.15 55.54 57.14
62.79 62.09 61.26 60.38 57.42 54.30 53.91 52.05 50.27 51.45 52.16 52.13 52.60 53.36 53.09 52.91 52.09 51.26 51.21 51.68 51.45 49.67
55.12 54.33 53.95 52.74 50.89 52.48 51.44 50.62 48.05 47.65 48.80 49.39 49.72 50.54 50.52 49.72 50.07 49.33 48.56 48.16 47.88 46.85
51.70 50.94 50.14 49.22 49.92 49.04 48.81 47.62 45.68 45.84 45.96 46.70 47.19 47.90 47.97 47.68 47.90 46.96 45.87 46.22 46.18 45.16
51.94 49.96 48.91 47.09 45.88 45.90 45.35 45.62 44.57 44.65 44.56 44.95 44.92 45.11 45.16 45.10 45.18 45.05 42.84 42.17 42.47 42.05
47.81 46.19 45.56 44.66 43.81 43.88 44.10 44.10 44.35 43.88 43.21 43.08 42.91 42.87 43.19 43.30 43.36 43.20 41.97 42.05 41.33 41.21
45.26 44.35 43.89 43.63 42.64 42.70 42.65 41.35 40.54 40.35 40.53 40.54 40.87 40.65 42.20 42.21 41.79 42.48 42.53 42.24 41.70 41.35
44.37 44.29 43.65 43.02 42.41 42.04 41.07 40.45 40.02 38.46 38.04 38.53 37.70 36.94 38.99 41.07 40.64 40.12 39.61 39.03 38.78 39.26
43.73 43.45 43.14 42.74 42.33 41.68 40.73 39.83 39.40 38.18 36.80 36.55 35.04 34.69 35.44 36.82 36.71 36.16 35.60 35.34 36.01 37.08
42.51 41.68 41.50 40.91 40.18 39.19 37.92 38.42 37.64 36.72 35.79 34.86 34.37 34.09 33.76 34.52 35.48 34.59 34.82 34.78 34.86 34.74
39.93 38.71 38.43 37.51 36.81 36.28 35.99 34.90 35.02 35.31 35.46 34.09 33.21 33.32 33.12 33.46 35.14 34.89 34.78 35.29 35.55 35.82
37.16 35.73 34.92 34.47 34.37 34.50 34.39 33.63 33.71 33.94 33.62 32.50 31.48 31.35 30.86 32.06 32.48 32.34 32.96 34.26 35.07 34.68
34.39 33.69 33.00 32.94 32.90 33.83 33.42 32.33 32.28 29.90 29.64 29.06 29.56 29.06 29.17 29.43 30.36 28.89 29.50 31.20 31.93 31.03
34.22 33.75 33.55 33.36 32.73 31.84 30.69 30.13 29.14 27.91 28.06 27.59 27.34 28.06 27.74 27.89 27.85 26.89 27.43 28.04 27.90 28.84
MSLP
1002.14 1002.35 1002.68 1003.10 1003.57 1004.40 1005.43 1006.66 1007.62 1006.73 1007.01 1007.82 1008.09 1008.12 1008.45 1009.07 1009.88 1010.40 1010.88 1011.18 1011.07 1010.79
1003.06 1003.27 1003.62 1004.23 1005.06 1005.78 1006.65 1007.40 1007.90 1010.45 1007.02 1009.17 1008.84 1010.00 1009.04 1009.53 1010.69 1011.12 1011.69 1011.94 1012.05 1012.10
1004.77 1005.04 1005.54 1006.02 1006.50 1007.30 1007.99 1007.87 1007.04 1008.62 1010.93 1010.77 1009.81 1009.60 1010.50 1010.86 1010.94 1011.43 1012.06 1012.74 1012.97 1013.00
1005.59 1006.15 1006.95 1007.64 1008.11 1008.78 1009.14 1008.27 1008.82 1009.97 1011.35 1011.16 1010.12 1010.52 1011.69 1011.67 1011.48 1012.13 1012.93 1013.32 1013.75 1014.05
1007.50 1007.30 1007.22 1008.61 1009.81 1009.55 1010.07 1009.17 1010.21 1010.93 1011.52 1011.46 1011.81 1012.52 1012.75 1012.13 1012.59 1012.88 1013.61 1014.51 1014.95 1014.86
1008.73 1008.61 1008.89 1009.47 1010.79 1010.55 1010.58 1011.67 1011.51 1011.90 1012.42 1013.06 1013.29 1013.53 1013.46 1013.35 1013.44 1013.92 1014.24 1014.98 1015.51 1015.16
1008.65 1010.13 1009.14 1010.75 1011.59 1011.39 1012.17 1012.95 1012.67 1012.98 1013.65 1013.60 1013.94 1014.00 1014.09 1014.37 1014.31 1014.66 1015.19 1015.99 1015.43 1015.26
1009.66 1010.06 1011.12 1011.17 1012.61 1013.00 1013.46 1013.35 1013.03 1014.24 1015.07 1014.61 1014.87 1015.45 1015.16 1014.86 1015.13 1015.78 1016.23 1016.38 1015.88 1015.60
1011.45 1011.17 1012.49 1012.63 1013.25 1013.85 1013.78 1014.41 1014.07 1015.11 1015.61 1015.77 1015.72 1016.36 1015.71 1015.88 1016.27 1016.61 1016.77 1016.67 1016.12 1015.95
1012.37 1012.31 1013.47 1014.02 1014.29 1014.88 1015.22 1014.51 1015.46 1016.02 1016.66 1017.12 1016.97 1017.27 1016.90 1015.93 1017.11 1016.89 1017.01 1016.78 1016.30 1016.13
1013.15 1014.38 1014.46 1014.80 1015.06 1015.74 1016.29 1016.58 1016.67 1016.68 1017.30 1017.61 1017.87 1017.44 1017.03 1017.38 1017.17 1017.13 1017.03 1016.89 1016.51 1016.00
1014.84 1015.46 1015.77 1016.12 1016.85 1017.30 1017.03 1017.26 1017.12 1018.20 1018.21 1017.86 1017.95 1018.43 1018.64 1018.09 1017.39 1017.37 1017.27 1016.86 1016.50 1016.48
1016.53 1016.47 1017.15 1017.56 1017.91 1018.18 1018.51 1018.69 1018.42 1018.79 1018.82 1019.11 1019.01 1019.48 1019.11 1018.64 1018.15 1018.01 1017.54 1017.28 1016.87 1016.80
1017.47 1018.06 1018.74 1018.98 1019.33 1019.71 1019.77 1019.26 1019.07 1019.30 1019.78 1020.23 1020.40 1019.79 1019.60 1019.53 1019.13 1018.86 1018.22 1017.72 1017.33 1017.10
Wind_Speed
6 5 5 6 4 6 10 10 12 8 10 10 10 11 10 8 7 8 7 7 6 4
11 11 10 13 11 11 12 11 20 13 14 13 13 10 13 10 9 9 8 8 8 6
15 15 14 14 15 13 10 10 17 14 10 11 14 15 13 9 11 11 8 7 8 8
14 15 15 14 12 11 10 15 15 14 10 14 15 14 12 12 12 12 11 10 9 7
13 14 17 17 14 13 14 17 15 14 14 15 15 14 12 13 11 12 11 9 7 8
12 13 15 15 11 11 16 13 15 15 16 14 13 13 12 12 12 12 10 8 6 8
14 10 15 13 11 12 15 13 14 16 15 14 14 13 11 10 9 9 9 6 7 8
13 15 11 14 13 13 13 13 16 15 14 15 14 10 10 11 11 9 7 7 8 8
12 15 11 12 12 12 14 13 16 14 14 15 13 17 17 11 9 8 8 7 8 8
11 13 11 11 12 11 11 14 14 13 14 15 16 20 16 14 9 8 8 9 9 8
13 11 12 12 13 13 12 13 11 14 13 14 14 22 22 11 9 9 9 9 10 11
13 12 12 14 11 9 12 11 13 13 13 15 16 24 22 13 10 10 11 11 11 13
14 14 13 12 11 11 10 10 10 14 15 19 14 22 24 20 10 11 10 11 12 14
14 13 12 10 8 9 10 12 13 14 13 14 15 15 23 23 12 11 10 10 10 10
Wind_Direction
169 186 190 198 142 70 62 49 25 70 88 82 84 86 90 88 73 60 55 48 43 40
58 67 72 71 72 73 77 82 54 337 69 66 75 78 75 71 72 66 53 40 38 41
61 59 63 63 65 72 88 107 93 59 33 68 68 62 64 71 65 64 51 46 40 37
83 79 67 67 65 64 76 77 71 88 60 57 61 64 66 65 61 62 56 46 38 35
70 83 88 80 69 79 64 71 77 78 72 67 61 56 61 65 59 58 55 42 34 27
90 82 81 86 92 73 81 78 86 84 76 73 73 73 62 60 65 61 64 52 38 32
90 81 96 83 71 84 88 84 73 71 73 70 61 54 54 67 62 58 56 41 41 33
96 89 76 89 83 78 74 78 73 69 62 62 57 44 46 56 51 39 33 23 26 22
85 84 83 87 93 96 86 79 78 74 65 56 57 45 49 47 56 42 32 14 15 8
80 81 85 81 84 76 76 79 72 75 74 60 56 46 47 47 40 39 22 14 7 359
85 79 87 84 79 77 74 74 79 70 73 65 52 40 31 21 38 30 14 357 357 352
77 81 73 68 69 70 76 70 71 65 56 57 46 35 28 17 27 14 359 352 357 350
69 69 68 68 65 65 65 73 73 66 53 44 42 32 26 19 18 4 355 348 350 349
77 70 60 65 68 60 70 70 64 60 52 44 35 31 25 22 14 3 350 350 345 336